+ View the NASA Portal
+ Center for Near-Earth Object Studies
IMPORTANT:
The SSD Announcement email list is now available. Major changes are coming in the near future, including possible hostname and/or URL changes. To be notified of such changes, subscribe to this email list.
Please visit
this page
for more details.
Don't show this message again
JPL Small-Body Database Browser
Search:
[
help
]
357545 (2004 RV324)
Classification:
Main-belt Asteroid
SPK-ID:
2357545
[
Ephemeris
|
Orbit Diagram
|
Orbital Elements
|
Mission Design
|
Physical Parameters
|
Discovery Circumstances
]
[ show orbit diagram ]
Orbital Elements at Epoch 2458600.5 (2019-Apr-27.0) TDB
Reference:
JPL 4
(heliocentric ecliptic J2000)
Element
Value
Uncertainty (1-sigma)
Units
e
.1606115411095792
2.9981e-07
a
2.317445414493313
2.2893e-08
au
q
1.945236935034215
7.0908e-07
au
i
5.016889177619666
1.9283e-05
deg
node
335.4561426790233
7.7437e-05
deg
peri
37.02108576001215
8.8663e-05
deg
M
44.50177633959312
4.6229e-05
deg
t
p
2458441.210355495256
(2018-Nov-18.71035550)
0.00016387
TDB
period
1288.583888969144
3.53
1.9094e-05
5.228e-08
d
yr
n
.2793764558766888
4.1398e-09
deg/d
Q
2.689653893952412
2.657e-08
au
Orbit Determination Parameters
# obs. used (total)
138
data-arc span
6156 days (16.85 yr)
first obs. used
2002-01-05
last obs. used
2018-11-13
planetary ephem.
DE431
SB-pert. ephem.
SB431-N16
condition code
0
norm. resid. RMS
.53162
source
ORB
producer
Otto Matic
solution date
2019-Jul-13 19:30:10
Additional Information
Earth MOID
= .94688 au
Jupiter MOID
= 2.78289 au
T_jup
= 3.558
[ show covariance matrix ]
[
Ephemeris
|
Orbit Diagram
|
Orbital Elements
|
Mission Design
|
Physical Parameters
|
Discovery Circumstances
]
Physical Parameter Table
Parameter
Symbol
Value
Units
Sigma
Reference
Notes
absolute magnitude
H
17.5
n/a
MPO455581
357545 (2004 RV324)
Discovered 2004-Sep-13 by LINEAR at Socorro
Reference:
20130327/Numbers.arc
Last Updated:
2013-03-29
[
Ephemeris
|
Orbit Diagram
|
Orbital Elements
|
Mission Design
|
Physical Parameters
|
Discovery Circumstances
]
2019-Dec-13 06:11 UT
(server date/time)
Site Manager:
Ryan S. Park
Webmaster
:
Alan B. Chamberlin